| time (UTC) | temp F | wind direction | speed MPH | gust MPH | rain 1hr in | rain 24hr in | rain mn in | humidity % | barometer mb |
| 20260503203341 | 58 | 17 | 3.0 | 10.0 | 0.00 | 0.00 | 0.00 | 38 | 1013.5 |
| 20260503202832 | 58 | 127 | 3.0 | 16.0 | 0.00 | 0.00 | 0.00 | 38 | 1013.6 |
| 20260503202323 | 58 | 281 | 9.0 | 16.0 | 0.00 | 0.00 | 0.00 | 35 | 1013.5 |
| 20260503201819 | 58 | 281 | 4.0 | 14.0 | 0.00 | 0.00 | 0.00 | 40 | 1013.6 |
| 20260503201332 | 58 | 257 | 8.0 | 14.0 | 0.00 | 0.00 | 0.00 | 34 | 1013.6 |
| 20260503200823 | 58 | 247 | 7.0 | 12.0 | 0.00 | 0.00 | 0.00 | 32 | 1013.7 |
| 20260503200336 | 58 | 9 | 3.0 | 15.0 | 0.00 | 0.00 | 0.00 | 35 | 1013.7 |
| 20260503195825 | 58 | 61 | 5.0 | 14.0 | 0.00 | 0.00 | 0.00 | 35 | 1013.8 |
| 20260503195317 | 58 | 113 | 5.0 | 15.0 | 0.00 | 0.00 | 0.00 | 35 | 1013.7 |
| 20260503194828 | 58 | 293 | 10.0 | 15.0 | 0.00 | 0.00 | 0.00 | 34 | 1013.8 |
| 20260503194320 | 58 | 304 | 9.0 | 13.0 | 0.00 | 0.00 | 0.00 | 35 | 1013.8 |
| 20260503193832 | 58 | 296 | 5.0 | 11.0 | 0.00 | 0.00 | 0.00 | 39 | 1014.0 |
| 20260503193328 | 57 | 112 | 3.0 | 16.0 | 0.00 | 0.00 | 0.00 | 36 | 1014.0 |
| 20260503192840 | 58 | 71 | 9.0 | 16.0 | 0.00 | 0.00 | 0.00 | 35 | 1013.9 |
| 20260503192331 | 58 | 95 | 4.0 | 14.0 | 0.00 | 0.00 | 0.00 | 37 | 1014.2 |
| 20260503191822 | 58 | 159 | 4.0 | 14.0 | 0.00 | 0.00 | 0.00 | 41 | 1014.3 |
| 20260503191314 | 57 | 148 | 5.0 | 14.0 | 0.00 | 0.00 | 0.00 | 39 | 1014.2 |
| 20260503190826 | 56 | 151 | 3.0 | 13.0 | 0.00 | 0.00 | 0.00 | 40 | 1014.4 |
| 20260503190338 | 57 | 298 | 5.0 | 13.0 | 0.00 | 0.00 | 0.00 | 37 | 1014.4 |
| 20260503185827 | 57 | 119 | 5.0 | 10.0 | 0.00 | 0.00 | 0.00 | 38 | 1014.4 |
| 20260503185339 | 56 | 9 | 6.0 | 12.0 | 0.00 | 0.00 | 0.00 | 37 | 1014.4 |
| 20260503184830 | 56 | 280 | 8.0 | 14.0 | 0.00 | 0.00 | 0.00 | 34 | 1014.5 |
| 20260503184343 | 56 | 360 | 4.0 | 15.0 | 0.00 | 0.00 | 0.00 | 36 | 1014.6 |
| 20260503183819 | 57 | 279 | 6.0 | 14.0 | 0.00 | 0.00 | 0.00 | 39 | 1014.5 |
| 20260503183351 | 57 | 360 | 5.0 | 15.0 | 0.00 | 0.00 | 0.00 | 41 | 1014.6 |
| 20260503182823 | 57 | 271 | 6.0 | 15.0 | 0.00 | 0.00 | 0.00 | 38 | 1014.7 |
| 20260503182315 | 57 | 251 | 4.0 | 9.0 | 0.00 | 0.00 | 0.00 | 39 | 1014.7 |
| 20260503181827 | 56 | 50 | 4.0 | 9.0 | 0.00 | 0.00 | 0.00 | 38 | 1014.7 |
| 20260503181318 | 55 | 121 | 4.0 | 21.0 | 0.00 | 0.00 | 0.00 | 40 | 1014.7 |
| 20260503180830 | 55 | 11 | 9.0 | 21.0 | 0.00 | 0.00 | 0.00 | 35 | 1014.8 |
| 20260503180322 | 55 | 294 | 8.0 | 13.0 | 0.00 | 0.00 | 0.00 | 39 | 1014.7 |
| 20260503175817 | 55 | 268 | 6.0 | 12.0 | 0.00 | 0.00 | 0.00 | 38 | 1014.9 |
| 20260503175349 | 56 | 146 | 5.0 | 9.0 | 0.00 | 0.00 | 0.00 | 40 | 1014.8 |
| 20260503174820 | 55 | 289 | 4.0 | 13.0 | 0.00 | 0.00 | 0.00 | 41 | 1014.9 |
| 20260503174351 | 55 | 125 | 4.0 | 13.0 | 0.00 | 0.00 | 0.00 | 38 | 1014.8 |
| 20260503173821 | 54 | 288 | 3.0 | 14.0 | 0.00 | 0.00 | 0.00 | 44 | 1015.0 |
| 20260503173314 | 55 | 294 | 8.0 | 14.0 | 0.00 | 0.00 | 0.00 | 40 | 1015.0 |
| 20260503172826 | 55 | 153 | 7.0 | 13.0 | 0.00 | 0.00 | 0.00 | 40 | 1015.1 |
| 20260503172318 | 54 | 176 | 3.0 | 17.0 | 0.00 | 0.00 | 0.00 | 44 | 1015.2 |
| 20260503171829 | 54 | 164 | 8.0 | 17.0 | 0.00 | 0.00 | 0.00 | 40 | 1015.2 |
| 20260503171321 | 54 | 309 | 4.0 | 11.0 | 0.00 | 0.00 | 0.00 | 41 | 1015.2 |
| 20260503170815 | 54 | 111 | 5.0 | 11.0 | 0.00 | 0.00 | 0.00 | 45 | 1015.4 |
| 20260503170328 | 53 | 52 | 2.0 | 14.0 | 0.00 | 0.00 | 0.00 | 42 | 1015.4 |
| 20260503150825 | 48 | 314 | 6.0 | 16.0 | 0.00 | 0.00 | 0.00 | 53 | 1016.2 |
| 20260503150316 | 47 | 28 | 7.0 | 15.0 | 0.00 | 0.00 | 0.00 | 48 | 1016.1 |
| 20260503131328 | 44 | 278 | 5.0 | 13.0 | 0.00 | 0.00 | 0.00 | 63 | 1016.2 |
| 20260503130819 | 43 | 277 | 7.0 | 14.0 | 0.00 | 0.00 | 0.00 | 62 | 1016.2 |
| 20260503130331 | 44 | 268 | 7.0 | 14.0 | 0.00 | 0.00 | 0.00 | 63 | 1016.2 |
| 20260503110342 | 38 | 292 | 5.0 | 12.0 | 0.00 | 0.00 | 0.00 | 74 | 1015.2 |
| 20260503090330 | 37 | 260 | 2.0 | 7.0 | 0.00 | 0.00 | 0.00 | 77 | 1014.1 |
| 20260503081328 | 39 | 274 | 3.0 | 7.0 | 0.00 | 0.00 | 0.00 | 74 | 1014.0 |
| 20260503080820 | 39 | 281 | 4.0 | 7.0 | 0.00 | 0.00 | 0.00 | 74 | 1014.0 |
| 20260503080315 | 39 | 270 | 2.0 | 9.0 | 0.00 | 0.00 | 0.00 | 74 | 1014.0 |
| 20260503072813 | 39 | 310 | 3.0 | 9.0 | 0.00 | 0.00 | 0.00 | 74 | 1013.7 |
| 20260503072325 | 39 | 279 | 4.0 | 8.0 | 0.00 | 0.00 | 0.00 | 74 | 1013.7 |
| 20260503071817 | 39 | 360 | 3.0 | 8.0 | 0.00 | 0.00 | 0.00 | 74 | 1013.7 |
| 20260503071313 | 39 | 296 | 3.0 | 9.0 | 0.00 | 0.00 | 0.00 | 74 | 1013.6 |
| 20260503070826 | 39 | 310 | 3.0 | 8.0 | 0.00 | 0.00 | 0.00 | 74 | 1013.6 |
| 20260503070317 | 39 | 279 | 2.0 | 9.0 | 0.00 | 0.00 | 0.00 | 74 | 1013.6 |
| 20260503060323 | 38 | 294 | 3.0 | 6.0 | 0.00 | 0.00 | 0.00 | 74 | 1013.3 |
| 20260503054842 | 38 | 280 | 3.0 | 7.0 | 0.00 | 0.00 | 0.00 | 74 | 1013.4 |
| 20260503054333 | 38 | 287 | 3.0 | 8.0 | 0.00 | 0.00 | 0.00 | 74 | 1013.4 |
| 20260503053844 | 38 | 302 | 2.0 | 8.0 | 0.00 | 0.00 | 0.00 | 73 | 1013.5 |
| 20260503053315 | 38 | 277 | 3.0 | 5.0 | 0.00 | 0.00 | 0.00 | 73 | 1013.5 |
| 20260503052827 | 39 | 286 | 3.0 | 5.0 | 0.00 | 0.00 | 0.00 | 73 | 1013.5 |
| 20260503052339 | 39 | 283 | 3.0 | 6.0 | 0.00 | 0.00 | 0.00 | 72 | 1013.5 |
| 20260503051830 | 39 | 291 | 2.0 | 4.0 | 0.00 | 0.00 | 0.00 | 72 | 1013.6 |
| 20260503051322 | 39 | 277 | 1.0 | 8.0 | 0.00 | 0.00 | 0.00 | 71 | 1013.5 |
| 20260503050814 | 39 | 294 | 4.0 | 8.0 | 0.00 | 0.00 | 0.00 | 71 | 1013.5 |
| 20260503050326 | 40 | 273 | 3.0 | 8.0 | 0.00 | 0.00 | 0.00 | 71 | 1013.5 |
| 20260503045842 | 40 | 274 | 4.0 | 11.0 | 0.00 | 0.00 | 0.00 | 71 | 1013.6 |
| 20260503045354 | 40 | 285 | 3.0 | 11.0 | 0.00 | 0.00 | 0.00 | 70 | 1013.7 |
| 20260503044846 | 40 | 286 | 2.0 | 10.0 | 0.00 | 0.00 | 0.00 | 71 | 1013.7 |
| 20260503044316 | 40 | 284 | 5.0 | 10.0 | 0.00 | 0.00 | 0.00 | 71 | 1013.7 |
| 20260503043829 | 40 | 281 | 3.0 | 9.0 | 0.00 | 0.00 | 0.00 | 71 | 1013.6 |
| 20260503043320 | 40 | 252 | 2.0 | 4.0 | 0.00 | 0.00 | 0.00 | 71 | 1013.7 |
| 20260503042832 | 40 | 283 | 2.0 | 4.0 | 0.00 | 0.00 | 0.00 | 71 | 1013.7 |
| 20260503042344 | 40 | 279 | 1.0 | 4.0 | 0.00 | 0.00 | 0.00 | 71 | 1013.8 |
| 20260503041814 | 40 | 275 | 1.0 | 5.0 | 0.00 | 0.00 | 0.00 | 70 | 1013.8 |
| 20260503041328 | 40 | 284 | 1.0 | 5.0 | 0.00 | 0.00 | 0.00 | 70 | 1013.8 |
| 20260503040824 | 40 | 278 | 2.0 | 9.0 | 0.00 | 0.00 | 0.00 | 70 | 1013.8 |
| 20260503040315 | 41 | 279 | 4.0 | 9.0 | 0.00 | 0.00 | 0.00 | 69 | 1013.8 |
| 20260503035825 | 41 | 285 | 4.0 | 9.0 | 0.00 | 0.00 | 0.00 | 69 | 1013.7 |
| 20260503035317 | 41 | 298 | 4.0 | 10.0 | 0.00 | 0.00 | 0.00 | 69 | 1013.7 |
| 20260503034829 | 41 | 300 | 5.0 | 12.0 | 0.00 | 0.00 | 0.00 | 69 | 1013.6 |
| 20260503034322 | 41 | 261 | 4.0 | 12.0 | 0.00 | 0.00 | 0.00 | 68 | 1013.6 |
| 20260503033813 | 41 | 297 | 5.0 | 11.0 | 0.00 | 0.00 | 0.00 | 68 | 1013.5 |
| 20260503033325 | 41 | 261 | 6.0 | 10.0 | 0.00 | 0.00 | 0.00 | 68 | 1013.5 |
| 20260503032837 | 41 | 302 | 7.0 | 10.0 | 0.00 | 0.00 | 0.00 | 67 | 1013.5 |
| 20260503032332 | 42 | 307 | 6.0 | 11.0 | 0.00 | 0.00 | 0.00 | 66 | 1013.5 |
| 20260503031844 | 42 | 273 | 6.0 | 13.0 | 0.00 | 0.00 | 0.00 | 66 | 1013.5 |
| 20260503031315 | 42 | 260 | 6.0 | 13.0 | 0.00 | 0.00 | 0.00 | 66 | 1013.6 |
| 20260503030828 | 42 | 279 | 7.0 | 18.0 | 0.00 | 0.00 | 0.00 | 65 | 1013.6 |
| 20260503030319 | 42 | 298 | 7.0 | 18.0 | 0.00 | 0.00 | 0.00 | 65 | 1013.6 |
| 20260503025830 | 42 | 292 | 8.0 | 15.0 | 0.00 | 0.00 | 0.00 | 65 | 1013.7 |
| 20260503025342 | 42 | 296 | 6.0 | 10.0 | 0.00 | 0.00 | 0.00 | 65 | 1013.7 |
| 20260503024833 | 43 | 309 | 5.0 | 10.0 | 0.00 | 0.00 | 0.00 | 65 | 1013.8 |
| 20260503024345 | 43 | 281 | 4.0 | 10.0 | 0.00 | 0.00 | 0.00 | 64 | 1013.8 |
| 20260503023816 | 43 | 289 | 5.0 | 12.0 | 0.00 | 0.00 | 0.00 | 63 | 1013.7 |
| 20260503023332 | 43 | 298 | 6.0 | 12.0 | 0.00 | 0.00 | 0.00 | 63 | 1013.8 |
| 20260503022823 | 43 | 281 | 5.0 | 9.0 | 0.00 | 0.00 | 0.00 | 63 | 1013.8 |
| 20260503022315 | 43 | 260 | 5.0 | 11.0 | 0.00 | 0.00 | 0.00 | 62 | 1013.7 |
| 20260503021849 | 44 | 294 | 6.0 | 11.0 | 0.00 | 0.00 | 0.00 | 62 | 1013.8 |
| 20260503021319 | 44 | 293 | 6.0 | 14.0 | 0.00 | 0.00 | 0.00 | 61 | 1013.8 |
| 20260503020830 | 44 | 311 | 5.0 | 14.0 | 0.00 | 0.00 | 0.00 | 61 | 1013.8 |
| 20260503020322 | 44 | 298 | 6.0 | 12.0 | 0.00 | 0.00 | 0.00 | 61 | 1013.7 |
| 20260503015832 | 44 | 278 | 8.0 | 12.0 | 0.00 | 0.00 | 0.00 | 60 | 1013.7 |
| 20260503015323 | 44 | 287 | 5.0 | 15.0 | 0.00 | 0.00 | 0.00 | 60 | 1013.7 |
| 20260503014818 | 45 | 296 | 6.0 | 15.0 | 0.00 | 0.00 | 0.00 | 60 | 1013.6 |
| 20260503014331 | 45 | 11 | 9.0 | 16.0 | 0.00 | 0.00 | 0.00 | 59 | 1013.5 |
| 20260503013823 | 45 | 298 | 7.0 | 16.0 | 0.00 | 0.00 | 0.00 | 59 | 1013.5 |
| 20260503013314 | 45 | 306 | 7.0 | 14.0 | 0.00 | 0.00 | 0.00 | 59 | 1013.4 |
| 20260503012826 | 45 | 280 | 7.0 | 12.0 | 0.00 | 0.00 | 0.00 | 59 | 1013.4 |
| 20260503012317 | 45 | 292 | 8.0 | 12.0 | 0.00 | 0.00 | 0.00 | 59 | 1013.4 |
| 20260503011850 | 45 | 18 | 8.0 | 11.0 | 0.00 | 0.00 | 0.00 | 59 | 1013.2 |
| 20260503011341 | 46 | 298 | 5.0 | 10.0 | 0.00 | 0.00 | 0.00 | 59 | 1013.2 |
| 20260503010832 | 46 | 281 | 4.0 | 9.0 | 0.00 | 0.00 | 0.00 | 58 | 1013.1 |
| 20260503010328 | 46 | 284 | 4.0 | 9.0 | 0.00 | 0.00 | 0.00 | 58 | 1013.0 |
| 20260503005818 | 46 | 297 | 4.0 | 9.0 | 0.00 | 0.00 | 0.00 | 58 | 1012.9 |
| 20260503005330 | 47 | 292 | 3.0 | 13.0 | 0.00 | 0.00 | 0.00 | 57 | 1012.9 |
| 20260503004821 | 47 | 262 | 6.0 | 13.0 | 0.00 | 0.00 | 0.00 | 56 | 1012.8 |
| 20260503004332 | 47 | 286 | 7.0 | 16.0 | 0.00 | 0.00 | 0.00 | 56 | 1012.7 |
| 20260503003825 | 47 | 244 | 9.0 | 16.0 | 0.00 | 0.00 | 0.00 | 56 | 1012.5 |
| 20260503003317 | 47 | 293 | 6.0 | 15.0 | 0.00 | 0.00 | 0.00 | 55 | 1012.5 |
| 20260503002829 | 47 | 276 | 6.0 | 13.0 | 0.00 | 0.00 | 0.00 | 56 | 1012.4 |
| 20260503002325 | 47 | 311 | 8.0 | 13.0 | 0.00 | 0.00 | 0.00 | 55 | 1012.4 |
| 20260503001838 | 47 | 288 | 4.0 | 13.0 | 0.00 | 0.00 | 0.00 | 56 | 1012.3 |
| 20260503001328 | 47 | 270 | 5.0 | 13.0 | 0.00 | 0.00 | 0.00 | 54 | 1012.3 |
| 20260503000840 | 48 | 296 | 6.0 | 11.0 | 0.00 | 0.00 | 0.00 | 55 | 1012.2 |
| 20260503000331 | 48 | 294 | 5.0 | 10.0 | 0.00 | 0.00 | 0.00 | 55 | 1012.2 |
| 20260502235821 | 48 | 311 | 4.0 | 8.0 | 0.00 | 0.00 | 0.00 | 56 | 1012.2 |
| 20260502235333 | 48 | 15 | 3.0 | 10.0 | 0.00 | 0.00 | 0.00 | 56 | 1012.2 |
| 20260502234825 | 48 | 273 | 5.0 | 13.0 | 0.00 | 0.00 | 0.00 | 55 | 1012.0 |
| 20260502234337 | 48 | 277 | 8.0 | 13.0 | 0.00 | 0.00 | 0.00 | 55 | 1011.9 |
| 20260502233827 | 48 | 311 | 6.0 | 10.0 | 0.00 | 0.00 | 0.00 | 55 | 1011.9 |
| 20260502233323 | 49 | 298 | 5.0 | 10.0 | 0.00 | 0.00 | 0.00 | 54 | 1011.9 |
| 20260502232816 | 49 | 285 | 3.0 | 10.0 | 0.00 | 0.00 | 0.00 | 54 | 1011.9 |
| 20260502232328 | 49 | 9 | 5.0 | 10.0 | 0.00 | 0.00 | 0.00 | 54 | 1011.7 |
| 20260502231821 | 49 | 310 | 5.0 | 10.0 | 0.00 | 0.00 | 0.00 | 52 | 1011.7 |
| 20260502231333 | 49 | 311 | 4.0 | 9.0 | 0.00 | 0.00 | 0.00 | 52 | 1011.7 |
| 20260502230825 | 49 | 277 | 4.0 | 8.0 | 0.00 | 0.00 | 0.00 | 52 | 1011.7 |
| 20260502230316 | 49 | 311 | 3.0 | 10.0 | 0.00 | 0.00 | 0.00 | 53 | 1011.7 |
| 20260502225826 | 50 | 311 | 4.0 | 11.0 | 0.00 | 0.00 | 0.00 | 52 | 1011.6 |
| 20260502225322 | 50 | 9 | 5.0 | 10.0 | 0.00 | 0.00 | 0.00 | 51 | 1011.6 |
| 20260502224834 | 50 | 286 | 4.0 | 10.0 | 0.00 | 0.00 | 0.00 | 51 | 1011.6 |
| 20260502224345 | 50 | 311 | 6.0 | 13.0 | 0.00 | 0.00 | 0.00 | 49 | 1011.5 |
| 20260502223815 | 50 | 271 | 5.0 | 13.0 | 0.00 | 0.00 | 0.00 | 49 | 1011.4 |
| 20260502223327 | 50 | 281 | 3.0 | 7.0 | 0.00 | 0.00 | 0.00 | 48 | 1011.5 |
| 20260502222818 | 51 | 290 | 3.0 | 11.0 | 0.00 | 0.00 | 0.00 | 49 | 1011.5 |
| 20260502222331 | 51 | 298 | 4.0 | 11.0 | 0.00 | 0.00 | 0.00 | 49 | 1011.4 |
| 20260502221822 | 51 | 282 | 5.0 | 10.0 | 0.00 | 0.00 | 0.00 | 48 | 1011.4 |
| 20260502221315 | 51 | 296 | 3.0 | 10.0 | 0.00 | 0.00 | 0.00 | 48 | 1011.3 |
| 20260502220827 | 51 | 279 | 6.0 | 11.0 | 0.00 | 0.00 | 0.00 | 47 | 1011.3 |
| 20260502220323 | 51 | 297 | 5.0 | 15.0 | 0.00 | 0.00 | 0.00 | 46 | 1011.3 |
| 20260502215833 | 51 | 288 | 8.0 | 15.0 | 0.00 | 0.00 | 0.00 | 47 | 1011.3 |
| 20260502215344 | 51 | 277 | 6.0 | 11.0 | 0.00 | 0.00 | 0.00 | 47 | 1011.2 |
| 20260502214835 | 51 | 293 | 7.0 | 14.0 | 0.00 | 0.00 | 0.00 | 46 | 1011.3 |
| 20260502214326 | 52 | 298 | 5.0 | 11.0 | 0.00 | 0.00 | 0.00 | 47 | 1011.3 |
| 20260502213838 | 51 | 288 | 7.0 | 11.0 | 0.00 | 0.00 | 0.00 | 48 | 1011.2 |
| 20260502213328 | 51 | 297 | 5.0 | 9.0 | 0.00 | 0.00 | 0.00 | 47 | 1011.3 |
| 20260502212820 | 51 | 289 | 3.0 | 9.0 | 0.00 | 0.00 | 0.00 | 47 | 1011.3 |
| 20260502212331 | 51 | 97 | 2.0 | 9.0 | 0.00 | 0.00 | 0.00 | 47 | 1011.3 |
| 20260502211842 | 51 | 267 | 4.0 | 12.0 | 0.00 | 0.00 | 0.00 | 47 | 1011.3 |
| 20260502211317 | 52 | 302 | 7.0 | 12.0 | 0.00 | 0.00 | 0.00 | 46 | 1011.3 |
| 20260502210829 | 52 | 120 | 4.0 | 11.0 | 0.00 | 0.00 | 0.00 | 47 | 1011.2 |
| 20260502210341 | 52 | 277 | 4.0 | 13.0 | 0.00 | 0.00 | 0.00 | 48 | 1011.3 |
| 20260502205830 | 52 | 313 | 5.0 | 13.0 | 0.00 | 0.00 | 0.00 | 46 | 1011.2 |
| 20260502205322 | 52 | 277 | 6.0 | 11.0 | 0.00 | 0.00 | 0.00 | 47 | 1011.2 |
| 20260502204813 | 52 | 296 | 4.0 | 9.0 | 0.00 | 0.00 | 0.00 | 48 | 1011.2 |
| 20260502204346 | 52 | 281 | 5.0 | 11.0 | 0.00 | 0.00 | 0.00 | 49 | 1011.2 |
| 20260502203816 | 52 | 299 | 2.0 | 11.0 | 0.00 | 0.00 | 0.00 | 47 | 1011.2 |